Regional Weather Roundup
Issued by NWS State College, PA

Home | Current Version | Previous Version | Text Only | Print | Product List | Glossary On
Versions: 1 2 3 4 5 6 7 8 9 10 11 12 13 14 15 16 17 18 19 20 21 22 23 24 25 26 27 28 29 30 31 32 33 34 35 36 37 38 39 40 41 42 43 44 45 46 47 48 49 50
000
ASUS41 KCTP 271010
RWRCTP

REGIONAL WEATHER ROUNDUP
NATIONAL WEATHER SERVICE STATE COLLEGE PA
600 AM EDT TUE JUN 27 2017

Note: "fair" indicates few or no clouds below 12,000 feet with no
significant weather and/or obstructions to visibility.

* = STATION THAT DOES NOT REPORT PRECIPITATION /E.G. RAIN...SNOW...ETC/
    THUNDER OR FOG.

PAZ002>004-007>009-013>016-020>023-029>032-271100-
WESTERN PENNSYLVANIA

CITY           SKY/WX    TMP DP  RH WIND       PRES   REMARKS
ERIE           MOCLDY    52  49  89 S10       29.97S
MEADVILLE      CLEAR     50  50 100 S5        30.00S
FRANKLIN*      MOCLDY    48  45  87 SW6       30.02R
NEW CASTLE     CLOUDY    52  50  93 SW3       30.03S
BEAVER COUNTY  NOT AVBL
BUTLER*        MOCLDY    54  48  82 CALM      30.03S
PITTSBURGH INT PTCLDY    54  51  90 CALM      30.02S
PITTSBURGH     MOCLDY    55  50  83 SW6       30.03R
INDIANA*       CLOUDY    55  52  88 SW5       30.06S
LATROBE        MOCLDY    54  54 100 SW5       30.05S
WASHINGTON CO* PTCLDY    50  48  93 CALM      30.06S
$$

PAZ004>006-010>012-017>019-024>028-033>037-041-042-045-046-049>053-271100-
CENTRAL PENNSYLVANIA

CITY           SKY/WX    TMP DP  RH WIND       PRES   REMARKS
BRADFORD       MOCLDY    49  47  93 SW3       30.00R
DUBOIS         CLOUDY    50  48  93 S3        30.02R
CLEARFIELD     LGT RAIN  51  51 100 SW7       30.04R FOG
JOHNSTOWN      PTCLDY    51  50  96 SW8       30.04R
ALTOONA        CLOUDY    56  51  84 SW7       30.04S
STATE COLLEGE  PTCLDY    55  52  88 CALM      30.03R
WILLIAMSPORT   NOT AVBL
SELINSGROVE    NOT AVBL
FT INDIANTOWN  CLOUDY    55  55 100 CALM      30.02R
CAPITAL CITY   NOT AVBL
HARRISBURG     CLOUDY    61  60  97 MISG      30.01R
YORK           NOT AVBL
$$

PAZ038>040-043-044-047-048-054-055-060>062-067>071-271100-
EASTERN PENNSYLVANIA

CITY           SKY/WX    TMP DP  RH WIND       PRES   REMARKS
SCRANTON       NOT AVBL
MOUNT POCONO   NOT AVBL
ALLENTOWN      NOT AVBL
QUAKERTOWN*    MOSUNNY   57  57 100 CALM      30.02R
READING        NOT AVBL
LANCASTER      CLEAR     61  59  94 W3        30.01
COATESVILLE    PTSUNNY   57  57 100 NW3       30.02R
POTTSTOWN      NOT AVBL
BLUE BELL        N/A     57  57 100 CALM      30.02R VSB 1/2
DOYLESTOWN     NOT AVBL
WILLOW GROVE   NOT AVBL
NORTH PHILA    PTCLDY    63  59  88 CALM      30.01
PHILADELPHIA   PTCLDY    62  59  90 E5        30.00R
$$




USA.gov is the U.S. government's official web portal to all federal, state and local government web resources and services.